{"data":{"norad_id":67306,"epoch":"2026-09-19T11:34:22.380672Z","epoch_age_seconds":163275,"freshness":"FRESH","line1":"1 67306U 26002B   26262.48220348  .00013382  00000+0  49468-3 0  9991","line2":"2 67306  43.0019 311.1226 0001505 271.2311  88.8368 15.27596953 40710","mean_motion":15.27596953,"eccentricity":0.0001505,"inclination_deg":43.0019,"raan_deg":311.1226,"arg_perigee_deg":271.2311,"mean_anomaly_deg":88.8368,"bstar":0.00049468,"rev_number":4071,"period_min":94.265702557997,"perigee_km":481.96573226068,"apogee_km":484.03093399595,"semimajor_km":6861.1353331283,"source":"CELESTRAK","updated_at":"2026-09-20T09:00:43.502237Z"}}